,,,PA_Meas_PMT16A,,PR_Meas_QMR101_102,,RH_Meas_QMH101,,SR_Meas_QMS101,,TA_Meas_QMH101,,GenWind,,GenWind,
date,time,status,PA,status,PR,status,RH,status,SR,status,TA,status,DirAvg,status,SpdAvg,
2012-09-14, 00:00:04,VALID,1000.94,VALID,0,VALID,90.5331,VALID,0,VALID,24.9679,VALID,97,VALID,0.276172,
2012-09-14, 00:01:04,VALID,1000.95,VALID,0,VALID,90.1897,VALID,0,VALID,24.9679,VALID,97,VALID,0.0472656,
2012-09-14, 00:02:04,VALID,1000.94,VALID,0,VALID,90.2126,VALID,0,VALID,24.9679,VALID,97,VALID,0,
2012-09-14, 00:03:04,VALID,1000.95,VALID,0,VALID,90.1058,VALID,0,VALID,24.9679,VALID,97,VALID,0.179297,
2012-09-14, 00:04:04,VALID,1000.95,VALID,0,VALID,90.1363,VALID,0,VALID,24.9679,VALID,100,VALID,0.147266,
2012-09-14, 00:05:04,VALID,1000.94,VALID,0,VALID,89.9074,VALID,0,VALID,24.9874,VALID,100,VALID,0.046875,
2012-09-14, 00:06:04,VALID,1000.94,VALID,0,VALID,89.8846,VALID,0,VALID,24.9874,VALID,100,VALID,0.345703,
2012-09-14, 00:07:04,VALID,1000.91,VALID,0,VALID,89.6328,VALID,0,VALID,25.0069,VALID,100,VALID,0.573047,
2012-09-14, 00:08:04,VALID,1000.86,VALID,0,VALID,89.4115,VALID,0,VALID,25.046,VALID,100,VALID,0.341797,
2012-09-14, 00:09:04,VALID,1000.82,VALID,0,VALID,89.1597,VALID,0,VALID,25.085,VALID,100,VALID,0.342969,
2012-09-14, 00:10:04,VALID,1000.81,VALID,0,VALID,89.03,VALID,0,VALID,25.1241,VALID,100,VALID,0.191016,
2012-09-14, 00:11:04,VALID,1000.77,VALID,0,VALID,88.8317,VALID,0,VALID,25.1436,VALID,100,VALID,0.319141,
2012-09-14, 00:12:04,VALID,1000.75,VALID,0,VALID,88.7706,VALID,0,VALID,25.1436,VALID,100,VALID,0.396484,
2012-09-14, 00:13:04,VALID,1000.72,VALID,0,VALID,88.824,VALID,0.104696,VALID,25.1026,VALID,100,VALID,0.177344,
2012-09-14, 00:14:04,VALID,1000.72,VALID,0,VALID,88.8851,VALID,0,VALID,25.1045,VALID,100,VALID,0.130078,
2012-09-14, 00:15:04,VALID,1000.72,VALID,0,VALID,88.9232,VALID,0,VALID,25.085,VALID,100,VALID,0.0238281,
2012-09-14, 00:16:04,VALID,1000.74,VALID,0,VALID,89.0377,VALID,0,VALID,25.085,VALID,100,VALID,0.301172,
2012-09-14, 00:17:04,VALID,1000.74,VALID,0,VALID,88.8393,VALID,0,VALID,25.085,VALID,100,VALID,0.266016,
2012-09-14, 00:18:04,VALID,1000.76,VALID,0,VALID,88.7096,VALID,0,VALID,25.1064,VALID,100,VALID,0,
2012-09-14, 00:19:04,VALID,1000.76,VALID,0,VALID,89.114,VALID,0,VALID,25.1241,VALID,100,VALID,0.239453,
2012-09-14, 00:20:04,VALID,1000.77,VALID,0,VALID,88.9995,VALID,0,VALID,25.1045,VALID,73,VALID,0.491797,
2012-09-14, 00:21:04,VALID,1000.75,VALID,0,VALID,89.4878,VALID,0,VALID,25.1241,VALID,334,VALID,0.798828,
2012-09-14, 00:22:04,VALID,1000.75,VALID,0,VALID,89.5031,VALID,0,VALID,25.0869,VALID,319,VALID,0.807422,
2012-09-14, 00:23:04,VALID,1000.72,VALID,0,VALID,90.0524,VALID,0,VALID,25.0674,VALID,319,VALID,0.826563,
2012-09-14, 00:24:04,VALID,1000.7,VALID,0,VALID,90.2279,VALID,0,VALID,25.0284,VALID,319,VALID,0.695313,
2012-09-14, 00:25:04,VALID,1000.69,VALID,0,VALID,90.4263,VALID,0,VALID,24.9893,VALID,312,VALID,0.671875,
2012-09-14, 00:26:04,VALID,1000.67,VALID,0,VALID,90.556,VALID,0,VALID,24.9698,VALID,291,VALID,0.629297,
2012-09-14, 00:27:04,VALID,1000.68,VALID,0,VALID,90.6475,VALID,0,VALID,24.9308,VALID,291,VALID,0.7125,
2012-09-14, 00:28:04,VALID,1000.65,VALID,0,VALID,90.6933,VALID,0,VALID,24.9112,VALID,291,VALID,0.544141,
2012-09-14, 00:29:04,VALID,1000.65,VALID,0,VALID,90.7238,VALID,0,VALID,24.8917,VALID,291,VALID,0.5,
2012-09-14, 00:30:04,VALID,1000.62,VALID,0,VALID,90.7162,VALID,0,VALID,24.8936,VALID,291,VALID,0.578125,
2012-09-14, 00:31:04,VALID,1000.59,VALID,0,VALID,90.7391,VALID,0,VALID,24.8722,VALID,291,VALID,0.480859,
2012-09-14, 00:32:04,VALID,1000.57,VALID,0,VALID,90.678,VALID,0,VALID,24.8722,VALID,291,VALID,0.400391,
2012-09-14, 00:33:04,VALID,1000.53,VALID,0,VALID,90.7391,VALID,0,VALID,24.8527,VALID,291,VALID,0.525,
2012-09-14, 00:34:04,VALID,1000.55,VALID,0,VALID,90.762,VALID,0,VALID,24.8527,VALID,265,VALID,0.699609,
2012-09-14, 00:35:04,VALID,1000.54,VALID,0,VALID,90.7238,VALID,0,VALID,24.8527,VALID,245,VALID,0.772656,
2012-09-14, 00:36:04,VALID,1000.56,VALID,0,VALID,90.8154,VALID,0,VALID,24.8722,VALID,259,VALID,0.672266,
2012-09-14, 00:37:04,VALID,1000.57,VALID,0,VALID,90.8917,VALID,0,VALID,24.8722,VALID,288,VALID,0.675,
2012-09-14, 00:38:04,VALID,1000.6,VALID,0,VALID,90.8077,VALID,0,VALID,24.8332,VALID,289,VALID,0.887891,
2012-09-14, 00:39:04,VALID,1000.57,VALID,0,VALID,90.9603,VALID,0,VALID,24.8136,VALID,295,VALID,0.367578,
2012-09-14, 00:40:04,VALID,1000.55,VALID,0,VALID,91.0443,VALID,0,VALID,24.8136,VALID,295,VALID,0.322656,
2012-09-14, 00:41:04,VALID,1000.54,VALID,0,VALID,91.0748,VALID,0,VALID,24.7746,VALID,295,VALID,0.122656,
2012-09-14, 00:42:04,VALID,1000.51,VALID,0,VALID,91.1587,VALID,0,VALID,24.7746,VALID,295,VALID,0.0917969,
2012-09-14, 00:43:04,VALID,1000.46,VALID,0,VALID,91.1587,VALID,0,VALID,24.7551,VALID,295,VALID,0.453906,
2012-09-14, 00:44:04,VALID,1000.45,VALID,0,VALID,91.2655,VALID,0,VALID,24.7356,VALID,295,VALID,0.442187,
2012-09-14, 00:45:04,VALID,1000.43,VALID,0,VALID,91.3647,VALID,0,VALID,24.716,VALID,295,VALID,0.196484,
2012-09-14, 00:46:04,VALID,1000.42,VALID,0,VALID,91.4257,VALID,0,VALID,24.6965,VALID,295,VALID,0,
2012-09-14, 00:47:04,VALID,1000.4,VALID,0,VALID,91.4105,VALID,0,VALID,24.6965,VALID,295,VALID,0.332031,
2012-09-14, 00:48:04,VALID,1000.39,VALID,0,VALID,91.4334,VALID,0,VALID,24.6965,VALID,295,VALID,0.386719,
2012-09-14, 00:49:04,VALID,1000.35,VALID,0,VALID,91.09,VALID,0,VALID,24.677,VALID,295,VALID,0.748438,
2012-09-14, 00:50:04,VALID,1000.38,VALID,0,VALID,91.2045,VALID,0,VALID,24.6575,VALID,295,VALID,0.676953,
2012-09-14, 00:51:04,VALID,1000.4,VALID,0,VALID,91.4257,VALID,0,VALID,24.638,VALID,295,VALID,0.309375,
2012-09-14, 00:52:04,VALID,1000.42,VALID,0,VALID,91.6699,VALID,0,VALID,24.638,VALID,295,VALID,0.172656,
2012-09-14, 00:53:04,VALID,1000.43,VALID,0,VALID,91.792,VALID,0,VALID,24.638,VALID,295,VALID,0,
2012-09-14, 00:54:04,VALID,1000.44,VALID,0,VALID,91.9217,VALID,0,VALID,24.6184,VALID,295,VALID,0.0792969,
2012-09-14, 00:55:04,VALID,1000.43,VALID,0,VALID,92.1658,VALID,0,VALID,24.6203,VALID,295,VALID,0.358594,
2012-09-14, 00:56:04,VALID,1000.42,VALID,0,VALID,92.1811,VALID,0,VALID,24.6184,VALID,295,VALID,0.717969,
2012-09-14, 00:57:04,VALID,1000.4,VALID,0,VALID,92.1277,VALID,0,VALID,24.6008,VALID,295,VALID,0.722266,
2012-09-14, 00:58:04,VALID,1000.42,VALID,0,VALID,92.0743,VALID,0,VALID,24.5599,VALID,320,VALID,0.833594,
2012-09-14, 00:59:04,VALID,1000.39,VALID,0,VALID,92.12,VALID,0,VALID,24.519,VALID,345,VALID,0.775781,
2012-09-14, 01:00:04,VALID,1000.39,VALID,0,VALID,92.2268,VALID,0,VALID,24.5013,VALID,345,VALID,0.734375,
2012-09-14, 01:01:04,VALID,1000.4,VALID,0,VALID,92.3871,VALID,0,VALID,24.4623,VALID,345,VALID,0.621875,
2012-09-14, 01:02:04,VALID,1000.39,VALID,0,VALID,92.41,VALID,0,VALID,24.4233,VALID,345,VALID,0.600781,
2012-09-14, 01:03:04,VALID,1000.4,VALID,0,VALID,92.532,VALID,0,VALID,24.3842,VALID,345,VALID,0.386719,
2012-09-14, 01:04:04,VALID,1000.38,VALID,0,VALID,92.8525,VALID,0,VALID,24.4037,VALID,345,VALID,0.271094,
2012-09-14, 01:05:04,VALID,1000.39,VALID,0,VALID,92.9898,VALID,0,VALID,24.4037,VALID,345,VALID,0.0234375,
2012-09-14, 01:06:04,VALID,1000.39,VALID,0,VALID,93.0585,VALID,0,VALID,24.4251,VALID,345,VALID,0,
2012-09-14, 01:07:04,VALID,1000.42,VALID,0,VALID,93.1119,VALID,0,VALID,24.4019,VALID,345,VALID,0.000390625,
2012-09-14, 01:08:04,VALID,1000.42,VALID,0,VALID,93.2187,VALID,0,VALID,24.4214,VALID,243,VALID,0.9125,
2012-09-14, 01:09:04,VALID,1000.47,VALID,0,VALID,93.2721,VALID,0,VALID,24.4818,VALID,226,VALID,1.04766,
2012-09-14, 01:10:04,VALID,1000.46,VALID,0,VALID,93.1653,VALID,0,VALID,24.519,VALID,229,VALID,1.03984,
2012-09-14, 01:11:04,VALID,1000.46,VALID,0,VALID,93.0127,VALID,0,VALID,24.5599,VALID,229,VALID,0.955078,
2012-09-14, 01:12:04,VALID,1000.43,VALID,0,VALID,92.5397,VALID,0,VALID,24.5775,VALID,216,VALID,0.891406,
2012-09-14, 01:13:04,VALID,1000.38,VALID,0,VALID,92.1734,VALID,0,VALID,24.5971,VALID,267,VALID,0.601563,
2012-09-14, 01:14:04,VALID,1000.34,VALID,0,VALID,91.7538,VALID,0,VALID,24.6166,VALID,267,VALID,0.19375,
2012-09-14, 01:15:04,VALID,1000.27,VALID,0,VALID,91.7157,VALID,0,VALID,24.6575,VALID,203,VALID,0.550781,
2012-09-14, 01:16:04,VALID,1000.26,VALID,0,VALID,91.1358,VALID,0,VALID,24.6751,VALID,172,VALID,0.856641,
2012-09-14, 01:17:04,VALID,1000.24,VALID,0,VALID,90.762,VALID,0,VALID,24.7142,VALID,171,VALID,0.930469,
2012-09-14, 01:18:04,VALID,1000.25,VALID,0,VALID,90.5254,VALID,0,VALID,24.7746,VALID,168,VALID,1.56406,
2012-09-14, 01:19:04,VALID,1000.24,VALID,0,VALID,90.0829,VALID,0,VALID,24.7922,VALID,170,VALID,1.13789,
2012-09-14, 01:20:04,VALID,1000.22,VALID,0,VALID,89.8769,VALID,0,VALID,24.8117,VALID,167,VALID,1.24922,
2012-09-14, 01:21:04,VALID,1000.21,VALID,0,VALID,89.587,VALID,0,VALID,24.8313,VALID,167,VALID,1.00898,
2012-09-14, 01:22:04,VALID,1000.24,VALID,0,VALID,89.4726,VALID,0,VALID,24.8703,VALID,167,VALID,0.570313,
2012-09-14, 01:23:04,VALID,1000.23,VALID,0,VALID,89.5565,VALID,0,VALID,24.8703,VALID,167,VALID,0.420312,
2012-09-14, 01:24:04,VALID,1000.21,VALID,0,VALID,89.442,VALID,0,VALID,24.8703,VALID,167,VALID,0.378516,
2012-09-14, 01:25:04,VALID,1000.21,VALID,0,VALID,89.2742,VALID,0,VALID,24.8917,VALID,167,VALID,0.526953,
2012-09-14, 01:26:04,VALID,1000.19,VALID,0,VALID,89.4268,VALID,0.104696,VALID,24.8898,VALID,167,VALID,0.555859,
2012-09-14, 01:27:04,VALID,1000.16,VALID,0,VALID,89.3657,VALID,0,VALID,24.9112,VALID,167,VALID,0.827344,
2012-09-14, 01:28:04,VALID,1000.12,VALID,0,VALID,89.3734,VALID,0,VALID,24.8898,VALID,167,VALID,0.756641,
2012-09-14, 01:29:04,VALID,1000.11,VALID,0,VALID,89.2894,VALID,0,VALID,24.9308,VALID,167,VALID,0.694141,
2012-09-14, 01:30:04,VALID,1000.11,VALID,0,VALID,89.3047,VALID,0.104696,VALID,24.9289,VALID,147,VALID,1.06523,
2012-09-14, 01:31:04,VALID,1000.08,VALID,0,VALID,89.3123,VALID,0,VALID,24.9289,VALID,140,VALID,1.09258,
2012-09-14, 01:32:04,VALID,1000.04,VALID,0,VALID,89.32,VALID,0,VALID,24.9289,VALID,140,VALID,1.09727,
2012-09-14, 01:33:04,VALID,1000.02,VALID,0,VALID,89.5412,VALID,0,VALID,24.9289,VALID,140,VALID,1.03125,
2012-09-14, 01:34:04,VALID,1000.01,VALID,0,VALID,89.5336,VALID,0,VALID,24.9093,VALID,129,VALID,1.10352,
2012-09-14, 01:35:04,VALID,999.979,VALID,0,VALID,89.793,VALID,0,VALID,24.9308,VALID,116,VALID,1.11641,
2012-09-14, 01:36:04,VALID,999.931,VALID,0,VALID,90.06,VALID,0,VALID,24.8898,VALID,116,VALID,1.16172,
2012-09-14, 01:37:04,VALID,999.945,VALID,0,VALID,90.266,VALID,0,VALID,24.8722,VALID,116,VALID,0.899609,
2012-09-14, 01:38:04,VALID,999.918,VALID,0,VALID,90.4263,VALID,0,VALID,24.8313,VALID,116,VALID,0.876172,
2012-09-14, 01:39:04,VALID,999.906,VALID,0,VALID,90.5865,VALID,0,VALID,24.8527,VALID,116,VALID,0.685156,
2012-09-14, 01:40:04,VALID,999.879,VALID,0,VALID,90.7162,VALID,0,VALID,24.8117,VALID,116,VALID,0.587109,
2012-09-14, 01:41:04,VALID,999.859,VALID,0,VALID,90.8306,VALID,0,VALID,24.8136,VALID,116,VALID,0.65625,
2012-09-14, 01:42:04,VALID,999.838,VALID,0,VALID,90.8383,VALID,0,VALID,24.7922,VALID,141,VALID,0.926172,
2012-09-14, 01:43:04,VALID,999.835,VALID,0,VALID,90.884,VALID,0,VALID,24.8136,VALID,141,VALID,0.858203,
2012-09-14, 01:44:04,VALID,999.801,VALID,0,VALID,90.9756,VALID,0,VALID,24.7922,VALID,141,VALID,0.777344,
2012-09-14, 01:45:04,VALID,999.765,VALID,0,VALID,91.0595,VALID,0,VALID,24.8136,VALID,141,VALID,0.755469,
2012-09-14, 01:46:04,VALID,999.733,VALID,0,VALID,90.9832,VALID,0,VALID,24.7922,VALID,141,VALID,0.919141,
2012-09-14, 01:47:04,VALID,999.723,VALID,0,VALID,90.9603,VALID,0,VALID,24.8117,VALID,141,VALID,0.655859,
2012-09-14, 01:48:04,VALID,999.701,VALID,0,VALID,91.0366,VALID,0,VALID,24.8117,VALID,141,VALID,0.660547,
2012-09-14, 01:49:04,VALID,999.688,VALID,0,VALID,90.9603,VALID,0,VALID,24.7922,VALID,141,VALID,0.577344,
2012-09-14, 01:50:04,VALID,999.683,VALID,0,VALID,91.0519,VALID,0,VALID,24.7922,VALID,141,VALID,0.445703,
2012-09-14, 01:51:04,VALID,999.681,VALID,0,VALID,91.2274,VALID,0,VALID,24.7727,VALID,141,VALID,0.266016,
2012-09-14, 01:52:04,VALID,999.702,VALID,0,VALID,91.2579,VALID,0.104696,VALID,24.7142,VALID,141,VALID,0.362109,
2012-09-14, 01:53:04,VALID,999.703,VALID,0,VALID,91.4486,VALID,0,VALID,24.6556,VALID,141,VALID,0.597656,
2012-09-14, 01:54:04,VALID,999.678,VALID,0,VALID,91.7004,VALID,0,VALID,24.6184,VALID,141,VALID,0.535937,
2012-09-14, 01:55:04,VALID,999.684,VALID,0,VALID,92.0209,VALID,0.104696,VALID,24.558,VALID,141,VALID,0.535937,
2012-09-14, 01:56:04,VALID,999.647,VALID,0,VALID,92.3337,VALID,0,VALID,24.5385,VALID,141,VALID,0.572656,
2012-09-14, 01:57:04,VALID,999.611,VALID,0,VALID,92.5473,VALID,0,VALID,24.4995,VALID,141,VALID,0.690234,
2012-09-14, 01:58:04,VALID,999.611,VALID,0,VALID,92.7151,VALID,0,VALID,24.4995,VALID,113,VALID,0.782422,
2012-09-14, 01:59:04,VALID,999.578,VALID,0,VALID,92.738,VALID,0,VALID,24.4604,VALID,43,VALID,0.817969,
2012-09-14, 02:00:04,VALID,999.573,VALID,0,VALID,92.7914,VALID,0,VALID,24.4623,VALID,43,VALID,0.908594,
2012-09-14, 02:01:04,VALID,999.587,VALID,0,VALID,92.9364,VALID,0,VALID,24.4019,VALID,40,VALID,1.08359,
2012-09-14, 02:02:04,VALID,999.584,VALID,0,VALID,92.9745,VALID,0.104696,VALID,24.3824,VALID,39,VALID,1.05078,
2012-09-14, 02:03:04,VALID,999.569,VALID,0,VALID,93.0051,VALID,0,VALID,24.3238,VALID,36,VALID,1.15508,
2012-09-14, 02:04:04,VALID,999.574,VALID,0,VALID,93.0508,VALID,0,VALID,24.2653,VALID,36,VALID,1,
2012-09-14, 02:05:04,VALID,999.585,VALID,0,VALID,93.1119,VALID,0,VALID,24.2067,VALID,36,VALID,1.19453,
2012-09-14, 02:06:04,VALID,999.539,VALID,0,VALID,93.3255,VALID,0.104696,VALID,24.1677,VALID,42,VALID,1.12227,
2012-09-14, 02:07:04,VALID,999.497,VALID,0,VALID,93.5391,VALID,0,VALID,24.15,VALID,46,VALID,1.04531,
2012-09-14, 02:08:04,VALID,999.452,VALID,0,VALID,93.6765,VALID,0,VALID,24.111,VALID,55,VALID,1.15937,
2012-09-14, 02:09:04,VALID,999.414,VALID,0,VALID,93.8214,VALID,0,VALID,24.0915,VALID,67,VALID,1.12656,
2012-09-14, 02:10:04,VALID,999.359,VALID,0,VALID,93.9817,VALID,0,VALID,24.072,VALID,76,VALID,1.25391,
2012-09-14, 02:11:04,VALID,999.38,VALID,0,VALID,94.0808,VALID,0,VALID,24.072,VALID,82,VALID,1.27383,
2012-09-14, 02:12:04,VALID,999.349,VALID,0,VALID,94.0961,VALID,0,VALID,24.0738,VALID,84,VALID,1.2832,
2012-09-14, 02:13:04,VALID,999.328,VALID,0,VALID,94.1266,VALID,0,VALID,24.0134,VALID,84,VALID,1.38359,
2012-09-14, 02:14:04,VALID,999.338,VALID,0,VALID,94.0961,VALID,0,VALID,24.0134,VALID,84,VALID,1.17266,
2012-09-14, 02:15:04,VALID,999.308,VALID,0,VALID,94.18,VALID,0,VALID,23.9939,VALID,84,VALID,1.04531,
2012-09-14, 02:16:04,VALID,999.295,VALID,0,VALID,94.264,VALID,0,VALID,23.9939,VALID,84,VALID,0.841797,
2012-09-14, 02:17:04,VALID,999.282,VALID,0,VALID,94.3021,VALID,0,VALID,23.9744,VALID,84,VALID,0.707812,
2012-09-14, 02:18:04,VALID,999.259,VALID,0,VALID,94.325,VALID,0,VALID,23.9549,VALID,84,VALID,0.866797,
2012-09-14, 02:19:04,VALID,999.223,VALID,0,VALID,94.3631,VALID,0,VALID,23.9549,VALID,84,VALID,0.787109,
2012-09-14, 02:20:04,VALID,999.255,VALID,0,VALID,94.264,VALID,0,VALID,23.9159,VALID,46,VALID,0.994141,
2012-09-14, 02:21:04,VALID,999.242,VALID,0,VALID,94.1877,VALID,0,VALID,23.8768,VALID,45,VALID,1.16836,
2012-09-14, 02:22:04,VALID,999.253,VALID,0,VALID,94.2792,VALID,0,VALID,23.836,VALID,45,VALID,1.12617,
2012-09-14, 02:23:04,VALID,999.238,VALID,0,VALID,94.3326,VALID,0,VALID,23.836,VALID,59,VALID,1.23711,
2012-09-14, 02:24:04,VALID,999.188,VALID,0,VALID,94.4089,VALID,0.104696,VALID,23.836,VALID,59,VALID,1.15937,
2012-09-14, 02:25:04,VALID,999.152,VALID,0,VALID,94.3784,VALID,0,VALID,23.836,VALID,59,VALID,0.830469,
2012-09-14, 02:26:04,VALID,999.122,VALID,0,VALID,94.2868,VALID,0,VALID,23.8573,VALID,72,VALID,0.917969,
2012-09-14, 02:27:04,VALID,999.113,VALID,0,VALID,94.1724,VALID,0,VALID,23.8555,VALID,67,VALID,1.12344,
2012-09-14, 02:28:04,VALID,999.102,VALID,0,VALID,94.0732,VALID,0,VALID,23.8555,VALID,65,VALID,0.798047,
2012-09-14, 02:29:04,VALID,999.057,VALID,0,VALID,93.9664,VALID,0.104696,VALID,23.8342,VALID,65,VALID,0.913281,
2012-09-14, 02:30:04,VALID,999.057,VALID,0,VALID,93.8367,VALID,0.104696,VALID,23.8342,VALID,65,VALID,0.732813,
2012-09-14, 02:31:04,VALID,999.031,VALID,0,VALID,93.7528,VALID,0.104696,VALID,23.8555,VALID,65,VALID,0.761328,
2012-09-14, 02:32:04,VALID,999.059,VALID,0,VALID,93.7528,VALID,0,VALID,23.8768,VALID,65,VALID,0.637891,
2012-09-14, 02:33:04,VALID,999.058,VALID,0,VALID,93.6994,VALID,0.104696,VALID,23.8555,VALID,65,VALID,0.548828,
2012-09-14, 02:34:04,VALID,999.057,VALID,0,VALID,93.5926,VALID,0,VALID,23.8555,VALID,65,VALID,0.558594,
2012-09-14, 02:35:04,VALID,999.069,VALID,0,VALID,93.5315,VALID,0,VALID,23.8555,VALID,65,VALID,0.588672,
2012-09-14, 02:36:04,VALID,999.044,VALID,0,VALID,93.4857,VALID,0.104696,VALID,23.836,VALID,65,VALID,0.684375,
2012-09-14, 02:37:04,VALID,999.031,VALID,0,VALID,93.4552,VALID,0.104696,VALID,23.836,VALID,65,VALID,0.466406,
2012-09-14, 02:38:04,VALID,999.037,VALID,0,VALID,93.3789,VALID,0.104696,VALID,23.836,VALID,65,VALID,0.549219,
2012-09-14, 02:39:04,VALID,999.047,VALID,0,VALID,93.3331,VALID,0.104696,VALID,23.836,VALID,65,VALID,0.498828,
2012-09-14, 02:40:04,VALID,999.01,VALID,0,VALID,93.3637,VALID,0,VALID,23.836,VALID,65,VALID,0.658984,
2012-09-14, 02:41:04,VALID,999.007,VALID,0,VALID,93.295,VALID,0,VALID,23.836,VALID,65,VALID,0.794922,
2012-09-14, 02:42:04,VALID,999.031,VALID,0,VALID,93.1577,VALID,0,VALID,23.8555,VALID,65,VALID,0.880078,
2012-09-14, 02:43:04,VALID,999.069,VALID,0,VALID,93.0508,VALID,0,VALID,23.8555,VALID,65,VALID,0.714063,
2012-09-14, 02:44:04,VALID,999.099,VALID,0,VALID,92.944,VALID,0,VALID,23.836,VALID,65,VALID,0.674219,
2012-09-14, 02:45:04,VALID,999.118,VALID,0,VALID,92.8601,VALID,0,VALID,23.8378,VALID,65,VALID,0.939453,
2012-09-14, 02:46:04,VALID,999.158,VALID,0,VALID,92.7457,VALID,0,VALID,23.8378,VALID,65,VALID,0.862109,
2012-09-14, 02:47:04,VALID,999.15,VALID,0,VALID,92.677,VALID,0,VALID,23.8183,VALID,65,VALID,0.567187,
2012-09-14, 02:48:04,VALID,999.199,VALID,0,VALID,92.6388,VALID,0,VALID,23.7988,VALID,65,VALID,0.532812,
2012-09-14, 02:49:04,VALID,999.202,VALID,0,VALID,92.6923,VALID,0,VALID,23.7811,VALID,65,VALID,0.476563,
2012-09-14, 02:50:04,VALID,999.215,VALID,0,VALID,92.8525,VALID,0,VALID,23.7597,VALID,65,VALID,0.321875,
2012-09-14, 02:51:04,VALID,999.229,VALID,0,VALID,92.9898,VALID,0,VALID,23.7597,VALID,65,VALID,0.203906,
2012-09-14, 02:52:04,VALID,999.266,VALID,0,VALID,93.1424,VALID,0,VALID,23.7811,VALID,65,VALID,0.183594,
2012-09-14, 02:53:04,VALID,999.286,VALID,0,VALID,93.1958,VALID,0,VALID,23.7402,VALID,65,VALID,0.396094,
2012-09-14, 02:54:04,VALID,999.277,VALID,0,VALID,93.3103,VALID,0,VALID,23.7402,VALID,65,VALID,0.460938,
2012-09-14, 02:55:04,VALID,999.266,VALID,0,VALID,93.5086,VALID,0,VALID,23.7597,VALID,65,VALID,0.412891,
2012-09-14, 02:56:04,VALID,999.284,VALID,0,VALID,93.6383,VALID,0,VALID,23.7793,VALID,65,VALID,0.351563,
2012-09-14, 02:57:04,VALID,999.245,VALID,0,VALID,93.6917,VALID,0,VALID,23.7988,VALID,65,VALID,0.353125,
2012-09-14, 02:58:04,VALID,999.235,VALID,0,VALID,93.6841,VALID,0,VALID,23.7988,VALID,65,VALID,0.401563,
2012-09-14, 02:59:04,VALID,999.238,VALID,0,VALID,93.6536,VALID,0,VALID,23.8183,VALID,65,VALID,0.520703,
2012-09-14, 03:00:04,VALID,999.241,VALID,0,VALID,93.6154,VALID,0,VALID,23.8183,VALID,65,VALID,0.557422,
2012-09-14, 03:01:04,VALID,999.27,VALID,0,VALID,93.6231,VALID,0,VALID,23.8183,VALID,343,VALID,0.720703,
2012-09-14, 03:02:04,VALID,999.289,VALID,0,VALID,93.5926,VALID,0,VALID,23.8183,VALID,307,VALID,0.641406,
2012-09-14, 03:03:04,VALID,999.317,VALID,0,VALID,93.562,VALID,0,VALID,23.7988,VALID,307,VALID,0.405469,
2012-09-14, 03:04:04,VALID,999.307,VALID,0,VALID,93.5773,VALID,0,VALID,23.7988,VALID,307,VALID,0.344141,
2012-09-14, 03:05:04,VALID,999.304,VALID,0,VALID,93.6154,VALID,0,VALID,23.7793,VALID,307,VALID,0.341406,
2012-09-14, 03:06:04,VALID,999.284,VALID,0,VALID,93.6765,VALID,0,VALID,23.7597,VALID,307,VALID,0.495703,
2012-09-14, 03:07:04,VALID,999.26,VALID,0,VALID,93.7604,VALID,0,VALID,23.7597,VALID,307,VALID,0.417969,
2012-09-14, 03:08:04,VALID,999.221,VALID,0,VALID,93.8062,VALID,0,VALID,23.7402,VALID,307,VALID,0.335547,
2012-09-14, 03:09:04,VALID,999.209,VALID,0,VALID,93.7833,VALID,0,VALID,23.7207,VALID,307,VALID,0.166016,
2012-09-14, 03:10:04,VALID,999.171,VALID,0,VALID,93.8367,VALID,0,VALID,23.7207,VALID,307,VALID,0,
2012-09-14, 03:11:04,VALID,999.156,VALID,0,VALID,93.8672,VALID,0,VALID,23.7207,VALID,307,VALID,0,
2012-09-14, 03:12:04,VALID,999.142,VALID,0,VALID,93.9054,VALID,0,VALID,23.7012,VALID,307,VALID,0,
2012-09-14, 03:13:04,VALID,999.116,VALID,0,VALID,93.9893,VALID,0,VALID,23.7012,VALID,307,VALID,0.222656,
2012-09-14, 03:14:04,VALID,999.12,VALID,0,VALID,94.0198,VALID,0,VALID,23.7012,VALID,307,VALID,0.248047,
2012-09-14, 03:15:04,VALID,999.119,VALID,0,VALID,93.852,VALID,0,VALID,23.6622,VALID,307,VALID,0.157031,
2012-09-14, 03:16:04,VALID,999.116,VALID,0,VALID,93.7223,VALID,0,VALID,23.6036,VALID,307,VALID,0.266797,
2012-09-14, 03:17:04,VALID,999.113,VALID,0,VALID,93.7985,VALID,0,VALID,23.5646,VALID,307,VALID,0.380078,
2012-09-14, 03:18:04,VALID,999.08,VALID,0,VALID,93.9511,VALID,0,VALID,23.5646,VALID,307,VALID,0.295703,
2012-09-14, 03:19:04,VALID,999.076,VALID,0,VALID,94.0656,VALID,0,VALID,23.5256,VALID,307,VALID,0.298047,
2012-09-14, 03:20:04,VALID,999.088,VALID,0,VALID,94.2182,VALID,0,VALID,23.5061,VALID,307,VALID,0.23125,
2012-09-14, 03:21:04,VALID,999.071,VALID,0,VALID,94.3631,VALID,0,VALID,23.5061,VALID,307,VALID,0.0339844,
2012-09-14, 03:22:04,VALID,999.037,VALID,0,VALID,94.4471,VALID,0,VALID,23.5061,VALID,307,VALID,0.242188,
2012-09-14, 03:23:04,VALID,999.045,VALID,0,VALID,94.5691,VALID,0,VALID,23.5061,VALID,307,VALID,0.389062,
2012-09-14, 03:24:04,VALID,999.005,VALID,0,VALID,94.6531,VALID,0,VALID,23.5256,VALID,307,VALID,0.430859,
2012-09-14, 03:25:04,VALID,999.028,VALID,0,VALID,94.6607,VALID,0,VALID,23.4866,VALID,308,VALID,0.462109,
2012-09-14, 03:26:04,VALID,999.009,VALID,0,VALID,94.5768,VALID,0,VALID,23.4671,VALID,308,VALID,0.605469,
2012-09-14, 03:27:04,VALID,998.982,VALID,0,VALID,94.4928,VALID,0,VALID,23.4475,VALID,330,VALID,0.706641,
2012-09-14, 03:28:04,VALID,999.009,VALID,0,VALID,94.3479,VALID,0,VALID,23.428,VALID,7,VALID,0.767187,
2012-09-14, 03:29:04,VALID,999.047,VALID,0,VALID,94.2716,VALID,0,VALID,23.4067,VALID,12,VALID,0.694531,
2012-09-14, 03:30:04,VALID,999.064,VALID,0,VALID,94.18,VALID,0,VALID,23.428,VALID,12,VALID,0.649219,
2012-09-14, 03:31:04,VALID,999.103,VALID,0,VALID,94.0961,VALID,0,VALID,23.4085,VALID,12,VALID,0.550391,
2012-09-14, 03:32:04,VALID,999.133,VALID,0,VALID,94.0885,VALID,0,VALID,23.389,VALID,12,VALID,0.578125,
2012-09-14, 03:33:04,VALID,999.106,VALID,0,VALID,94.1114,VALID,0,VALID,23.428,VALID,12,VALID,0.639063,
2012-09-14, 03:34:04,VALID,999.083,VALID,0,VALID,94.1953,VALID,0,VALID,23.4671,VALID,12,VALID,0.591797,
2012-09-14, 03:35:04,VALID,999.09,VALID,0,VALID,94.1877,VALID,0,VALID,23.4475,VALID,12,VALID,0.624219,
2012-09-14, 03:36:04,VALID,999.091,VALID,0,VALID,94.1343,VALID,0,VALID,23.4475,VALID,12,VALID,0.648828,
2012-09-14, 03:37:04,VALID,999.073,VALID,0,VALID,93.9206,VALID,0,VALID,23.389,VALID,12,VALID,0.689844,
2012-09-14, 03:38:04,VALID,999.091,VALID,0,VALID,93.9511,VALID,0,VALID,23.389,VALID,12,VALID,0.583984,
2012-09-14, 03:39:04,VALID,999.111,VALID,0,VALID,93.9893,VALID,0,VALID,23.389,VALID,12,VALID,0.45,
2012-09-14, 03:40:04,VALID,999.124,VALID,0,VALID,94.0427,VALID,0,VALID,23.3908,VALID,12,VALID,0.352734,
2012-09-14, 03:41:04,VALID,999.133,VALID,0,VALID,94.1114,VALID,0,VALID,23.3695,VALID,12,VALID,0.485938,
2012-09-14, 03:42:04,VALID,999.115,VALID,0,VALID,94.2563,VALID,0,VALID,23.4103,VALID,12,VALID,0.597266,
2012-09-14, 03:43:04,VALID,999.129,VALID,0,VALID,94.3631,VALID,0,VALID,23.389,VALID,12,VALID,0.715234,
2012-09-14, 03:44:04,VALID,999.17,VALID,0,VALID,94.4013,VALID,0,VALID,23.389,VALID,12,VALID,0.760547,
2012-09-14, 03:45:04,VALID,999.135,VALID,0,VALID,94.3937,VALID,0,VALID,23.389,VALID,12,VALID,0.813281,